Retour au catalogue

STARLINK-31801

ActifCommunicationsVLEO
NORAD 59647·PAYLOAD·🇺🇸 United States

Lancé May 3, 2024 depuis Cape Canaveral Space Force Station

Loading…

Prochains Passages (prochaines 24 heures)

TLE

FraisSource: CelesTrak SupGP

Époque: Sep 15, 2026, 02:20 UTC

1 59647C 24082S   26258.09770833  .00020305  00000+0  73561-3 0  2589
2 59647  43.0027 150.5784 0001370 276.5337 105.6803 15.27560967    15

Suivez STARLINK-31801 en temps réel avec AllMySat

Download on the App Store